Time,TemperatureF,DewpointF,PressureIn,WindDirection,WindDirectionDegrees,WindSpeedMPH,WindSpeedGustMPH,Humidity,HourlyPrecipIn,Conditions,Clouds,dailyrainin,SolarRadiationWatts/m^2,SoftwareType,DateUTC
2013-08-11 00:04:00,61.0,60.0,-100.00,SSE,168,1.0,3.0,98,0.00,,,0.23,0.000000,,2013-08-11 07:04:00,
2013-08-11 00:13:00,61.0,60.0,-100.00,SSE,168,1.0,3.0,98,0.00,,,0.23,0.000000,,2013-08-11 07:13:00,
2013-08-11 00:22:00,61.0,60.0,-100.00,SSE,168,1.0,3.0,98,0.00,,,0.23,0.000000,,2013-08-11 07:22:00,
2013-08-11 00:56:00,60.0,59.0,-100.00,SE,138,0.0,3.0,96,0.00,,,0.23,0.000000,,2013-08-11 07:56:00,
2013-08-11 01:04:00,60.0,59.0,-100.00,SE,138,0.0,3.0,96,0.00,,,0.23,0.000000,,2013-08-11 08:04:00,
2013-08-11 01:13:00,60.0,59.0,-100.00,SE,138,0.0,3.0,96,0.00,,,0.23,0.000000,,2013-08-11 08:13:00,
2013-08-11 01:22:00,60.0,59.0,-100.00,SE,138,0.0,3.0,96,0.00,,,0.23,0.000000,,2013-08-11 08:22:00,
2013-08-11 01:58:00,58.0,57.0,-100.00,SSE,147,1.0,4.0,97,0.00,,,0.23,0.000000,,2013-08-11 08:58:00,
2013-08-11 02:12:00,58.0,57.0,-100.00,SSE,147,1.0,4.0,97,0.00,,,0.23,0.000000,,2013-08-11 09:12:00,
2013-08-11 03:00:00,59.0,58.0,-100.00,SE,143,0.0,4.0,97,0.00,,,0.23,0.000000,,2013-08-11 10:00:00,
2013-08-11 03:13:00,59.0,58.0,-100.00,SE,143,0.0,4.0,97,0.00,,,0.23,0.000000,,2013-08-11 10:13:00,
2013-08-11 03:23:00,59.0,58.0,-100.00,SE,143,0.0,4.0,97,0.00,,,0.23,0.000000,,2013-08-11 10:23:00,
2013-08-11 03:57:00,59.0,58.0,-100.00,SSE,164,0.0,2.0,98,0.03,,,0.26,0.000000,,2013-08-11 10:57:00,
2013-08-11 04:04:00,59.0,58.0,-100.00,SSE,164,0.0,2.0,98,0.03,,,0.26,0.000000,,2013-08-11 11:04:00,
2013-08-11 04:12:00,59.0,58.0,-100.00,SSE,164,0.0,2.0,98,0.03,,,0.26,0.000000,,2013-08-11 11:12:00,
2013-08-11 04:22:00,59.0,58.0,-100.00,SSE,164,0.0,2.0,98,0.03,,,0.26,0.000000,,2013-08-11 11:22:00,
2013-08-11 04:58:00,59.0,59.0,-100.00,South,175,0.0,3.0,99,0.03,,,-99.99,0.000000,,2013-08-11 11:58:00,
2013-08-11 05:04:00,59.0,59.0,-100.00,South,175,0.0,3.0,99,0.03,,,-99.99,0.000000,,2013-08-11 12:04:00,
2013-08-11 05:12:00,59.0,59.0,-100.00,South,175,0.0,3.0,99,0.03,,,-99.99,0.000000,,2013-08-11 12:12:00,
2013-08-11 05:23:00,59.0,59.0,-100.00,South,175,0.0,3.0,99,0.03,,,-99.99,0.000000,,2013-08-11 12:23:00,
2013-08-11 05:56:00,59.0,59.0,-100.00,ESE,106,0.0,2.0,99,0.04,,,-99.99,0.000000,,2013-08-11 12:56:00,
2013-08-11 06:03:00,59.0,59.0,-100.00,ESE,106,0.0,2.0,99,0.04,,,-99.99,0.000000,,2013-08-11 13:03:00,
2013-08-11 06:23:00,59.0,59.0,-100.00,ESE,106,0.0,2.0,99,0.04,,,-99.99,0.000000,,2013-08-11 13:23:00,
2013-08-11 06:58:00,59.0,59.0,-100.00,SSW,205,2.0,10.0,99,0.02,,,0.24,4.000000,,2013-08-11 13:58:00,
2013-08-11 07:13:00,59.0,59.0,-100.00,SSW,205,2.0,10.0,99,0.02,,,0.24,4.000000,,2013-08-11 14:13:00,
2013-08-11 07:22:00,59.0,59.0,-100.00,SSW,205,2.0,10.0,99,0.02,,,0.24,4.000000,,2013-08-11 14:22:00,
2013-08-11 07:57:00,57.0,56.0,-100.00,SW,226,2.0,5.0,98,0.00,,,0.16,52.000000,,2013-08-11 14:57:00,
2013-08-11 08:03:00,57.0,56.0,-100.00,SW,226,2.0,5.0,98,0.00,,,0.16,52.000000,,2013-08-11 15:03:00,
2013-08-11 08:12:00,57.0,56.0,-100.00,SW,226,2.0,5.0,98,0.00,,,0.16,52.000000,,2013-08-11 15:12:00,
2013-08-11 08:22:00,57.0,56.0,-100.00,SW,226,2.0,5.0,98,0.00,,,0.16,52.000000,,2013-08-11 15:22:00,
2013-08-11 08:58:00,58.0,57.0,-100.00,SW,217,2.0,6.0,98,0.00,,,0.15,75.000000,,2013-08-11 15:58:00,
2013-08-11 09:04:00,58.0,57.0,-100.00,SW,217,2.0,6.0,98,0.00,,,0.15,75.000000,,2013-08-11 16:04:00,
2013-08-11 09:12:00,58.0,57.0,-100.00,SW,217,2.0,6.0,98,0.00,,,0.15,75.000000,,2013-08-11 16:12:00,
2013-08-11 09:22:00,58.0,57.0,-100.00,SW,217,2.0,6.0,98,0.00,,,0.15,75.000000,,2013-08-11 16:22:00,
2013-08-11 09:57:00,60.0,59.0,-100.00,WSW,253,0.0,7.0,96,0.00,,,0.15,114.000000,,2013-08-11 16:57:00,
2013-08-11 10:05:00,60.0,59.0,-100.00,WSW,253,0.0,7.0,96,0.00,,,0.15,114.000000,,2013-08-11 17:05:00,
2013-08-11 10:12:00,60.0,59.0,-100.00,WSW,253,0.0,7.0,96,0.00,,,0.15,114.000000,,2013-08-11 17:12:00,
2013-08-11 10:23:00,60.0,59.0,-100.00,WSW,253,0.0,7.0,96,0.00,,,0.15,114.000000,,2013-08-11 17:23:00,
2013-08-11 10:57:00,65.0,61.0,-100.00,WSW,255,1.0,6.0,86,0.00,,,0.15,397.000000,,2013-08-11 17:57:00,
2013-08-11 11:05:00,65.0,61.0,-100.00,WSW,255,1.0,6.0,86,0.00,,,0.15,397.000000,,2013-08-11 18:05:00,
2013-08-11 11:15:00,65.0,61.0,-100.00,WSW,255,1.0,6.0,86,0.00,,,0.15,397.000000,,2013-08-11 18:15:00,
2013-08-11 11:22:00,65.0,61.0,-100.00,WSW,255,1.0,6.0,86,0.00,,,0.15,397.000000,,2013-08-11 18:22:00,
2013-08-11 11:55:00,65.0,60.0,-100.00,WSW,252,2.0,6.0,85,0.00,,,0.15,435.000000,,2013-08-11 18:55:00,
2013-08-11 12:04:00,65.0,60.0,-100.00,WSW,252,2.0,6.0,85,0.00,,,0.15,435.000000,,2013-08-11 19:04:00,
2013-08-11 12:12:00,65.0,60.0,-100.00,WSW,252,2.0,6.0,85,0.00,,,0.15,435.000000,,2013-08-11 19:12:00,
2013-08-11 12:22:00,65.0,60.0,-100.00,WSW,252,2.0,6.0,85,0.00,,,0.15,435.000000,,2013-08-11 19:22:00,
2013-08-11 12:59:00,64.0,59.0,-100.00,SW,220,2.0,7.0,85,0.00,,,0.15,407.000000,,2013-08-11 19:59:00,
2013-08-11 13:58:00,68.0,61.0,-100.00,West,266,1.0,6.0,77,0.00,,,0.15,490.000000,,2013-08-11 20:58:00,
2013-08-11 14:11:00,68.0,61.0,-100.00,West,266,1.0,6.0,77,0.00,,,0.15,490.000000,,2013-08-11 21:11:00,
2013-08-11 14:22:00,68.0,61.0,-100.00,West,266,1.0,6.0,77,0.00,,,0.15,490.000000,,2013-08-11 21:22:00,
2013-08-11 15:03:00,71.0,61.0,-100.00,West,271,2.0,7.0,71,0.00,,,0.15,699.000000,,2013-08-11 22:03:00,
2013-08-11 15:13:00,71.0,61.0,-100.00,West,271,2.0,7.0,71,0.00,,,0.15,699.000000,,2013-08-11 22:13:00,
2013-08-11 15:22:00,71.0,61.0,-100.00,West,271,2.0,7.0,71,0.00,,,0.15,699.000000,,2013-08-11 22:22:00,
2013-08-11 16:13:00,71.0,60.0,-100.00,WSW,239,3.0,8.0,68,0.00,,,0.15,783.000000,,2013-08-11 23:13:00,
2013-08-11 16:57:00,65.0,58.0,-100.00,WSW,249,4.0,12.0,79,0.00,,,0.15,393.000000,,2013-08-11 23:57:00,
2013-08-11 17:13:00,65.0,58.0,-100.00,WSW,249,4.0,12.0,79,0.00,,,0.15,393.000000,,2013-08-12 00:13:00,
2013-08-11 17:22:00,65.0,58.0,-100.00,WSW,249,4.0,12.0,79,0.00,,,0.15,393.000000,,2013-08-12 00:22:00,
2013-08-11 17:57:00,61.0,58.0,-100.00,South,188,1.0,12.0,91,0.01,,,0.16,96.000000,,2013-08-12 00:57:00,
2013-08-11 18:13:00,61.0,58.0,-100.00,South,188,1.0,12.0,91,0.01,,,0.16,96.000000,,2013-08-12 01:13:00,
2013-08-11 18:55:00,61.0,59.0,-100.00,WNW,286,0.0,4.0,94,0.00,,,0.16,79.000000,,2013-08-12 01:55:00,
2013-08-11 19:05:00,61.0,59.0,-100.00,WNW,286,0.0,4.0,94,0.00,,,0.16,79.000000,,2013-08-12 02:05:00,
2013-08-11 19:13:00,61.0,59.0,-100.00,WNW,286,0.0,4.0,94,0.00,,,0.16,79.000000,,2013-08-12 02:13:00,
2013-08-11 19:23:00,61.0,59.0,-100.00,WNW,286,0.0,4.0,94,0.00,,,0.16,79.000000,,2013-08-12 02:23:00,
2013-08-11 19:58:00,60.0,59.0,-100.00,SE,125,1.0,3.0,96,0.01,,,0.17,36.000000,,2013-08-12 02:58:00,
2013-08-11 20:05:00,60.0,59.0,-100.00,SE,125,1.0,3.0,96,0.01,,,0.17,36.000000,,2013-08-12 03:05:00,
2013-08-11 20:13:00,60.0,59.0,-100.00,SE,125,1.0,3.0,96,0.01,,,0.17,36.000000,,2013-08-12 03:13:00,
2013-08-11 20:22:00,60.0,59.0,-100.00,SE,125,1.0,3.0,96,0.01,,,0.17,36.000000,,2013-08-12 03:22:00,
2013-08-11 21:00:00,59.0,58.0,-100.00,SE,146,0.0,2.0,96,0.00,,,0.16,22.000000,,2013-08-12 04:00:00,
2013-08-11 21:02:00,59.0,58.0,-100.00,SE,146,0.0,2.0,96,0.00,,,0.16,22.000000,,2013-08-12 04:02:00,
2013-08-11 21:12:00,59.0,58.0,-100.00,SE,146,0.0,2.0,96,0.00,,,0.16,22.000000,,2013-08-12 04:12:00,
2013-08-11 21:22:00,59.0,58.0,-100.00,SE,146,0.0,2.0,96,0.00,,,0.16,22.000000,,2013-08-12 04:22:00,
2013-08-11 21:52:00,59.0,58.0,-100.00,SSE,162,0.0,3.0,97,0.00,,,-99.99,0.000000,,2013-08-12 04:52:00,
2013-08-11 22:02:00,59.0,58.0,-100.00,SSE,162,0.0,3.0,97,0.00,,,-99.99,0.000000,,2013-08-12 05:02:00,
2013-08-11 22:11:00,59.0,58.0,-100.00,SSE,162,0.0,3.0,97,0.00,,,-99.99,0.000000,,2013-08-12 05:11:00,
2013-08-11 22:22:00,59.0,58.0,-100.00,SSE,162,0.0,3.0,97,0.00,,,-99.99,0.000000,,2013-08-12 05:22:00,
2013-08-11 22:52:00,58.0,57.0,-100.00,SSE,168,0.0,3.0,97,0.00,,,0.14,0.000000,,2013-08-12 05:52:00,
2013-08-11 23:01:00,58.0,57.0,-100.00,SSE,168,0.0,3.0,97,0.00,,,0.14,0.000000,,2013-08-12 06:01:00,
2013-08-11 23:11:00,58.0,57.0,-100.00,SSE,168,0.0,3.0,97,0.00,,,0.14,0.000000,,2013-08-12 06:11:00,
2013-08-11 23:21:00,58.0,57.0,-100.00,SSE,168,0.0,3.0,97,0.00,,,0.14,0.000000,,2013-08-12 06:21:00,
2013-08-11 23:52:00,58.0,57.0,-100.00,SE,128,0.0,2.0,97,0.00,,,0.14,0.000000,,2013-08-12 06:52:00,